This demonstration page uses our WeatherBlox Daily Observations layout. Learn more.

Hourly Observations for August 7, 2018

Temp ( °F °C ) Dew Point ( °F °C ) Humidity (%) Winds ( mph kmh ) Pressure ( in mb ) Visibility ( mi km ) Precip ( " mm )
12:15 am 00:15 Partly Cloudy 67 19.5 67 19.5 100 100 ENE 6 9 30 1016 7 11.265408 0 0
12:35 am 00:35 Mostly Cloudy 68 19.8 68 19.8 100 100 E 3 6 30.03 1017 7 11.265408 0 0
12:55 am 00:55 Cloudy 68 20.1 68 20.1 100 100 ESE 7 11 30.03 1017 10 16.09344 0 0
1:15 am 01:15 Partly Cloudy 67 19.7 67 19.6 99 99 ESE 5 7 30.03 1017 10 16.09344 0 0
1:35 am 01:35 Clear 67 19.7 67 19.5 99 99 SE 5 7 30 1016 10 16.09344 0 0
1:55 am 01:55 Clear 67 19.5 67 19.2 98 98 SE 3 6 30 1016 10 16.09344 0 0
2:15 am 02:15 Clear 67 19.4 66 18.9 97 97 Calm 30 1016 10 16.09344 0 0
2:35 am 02:35 Mostly Cloudy 66 19 66 19 100 100 Calm 30.03 1017 10 16.09344 0 0
2:55 am 02:55 Cloudy 67 19.2 66 19 99 99 E 3 6 30 1016 10 16.09344 0 0
3:15 am 03:15 Mostly Cloudy 66 18.9 65 18.5 98 98 Calm 30 1016 10 16.09344 0 0
3:35 am 03:35 Partly Cloudy 67 19.3 66 18.7 96 96 Calm 30 1016 10 16.09344 0 0
3:55 am 03:55 Mostly Cloudy 67 19.5 66 18.7 95 95 Calm 30 1016 10 16.09344 0 0
4:15 am 04:15 Cloudy 67 19.2 66 19 99 99 Calm 30 1016 10 16.09344 0 0
4:35 am 04:35 Cloudy 66 19 66 19 100 100 NNW 3 6 30 1016 10 16.09344 0 0
4:55 am 04:55 Cloudy 66 19 66 19 100 100 Calm 30 1016 7 11.265408 0 0
5:15 am 05:15 Cloudy 66 19 66 19 100 100 Calm 30 1016 7 11.265408 0 0
5:35 am 05:35 Cloudy 66 19.1 66 19.1 100 100 Calm 30 1016 7 11.265408 0 0
5:55 am 05:55 Cloudy 67 19.2 67 19.2 100 100 Calm 30 1016 7 11.265408 0 0
6:15 am 06:15 Cloudy with Mist and Fog 66 19 66 19 100 100 Calm 30 1016 5 8.04672 0 0
6:35 am 06:35 Cloudy with Mist and Fog 66 18.8 66 18.8 100 100 Calm 30.03 1017 5 8.04672 0 0
6:55 am 06:55 Cloudy with Mist and Fog 66 19 66 19 100 100 Calm 30.03 1017 5 8.04672 0 0
7:15 am 07:15 Cloudy with Mist and Fog 66 19 66 19 100 100 N 3 6 30.03 1017 5 8.04672 0 0
7:35 am 07:35 Cloudy with Mist and Fog 65 18.6 65 18.6 100 100 NNW 3 6 30.03 1017 4 6.437376 0 0
7:55 am 07:55 Cloudy with Mist and Fog 66 19 66 19 100 100 NW 3 6 30.03 1017 4 6.437376 0 0
8:15 am 08:15 Partly Cloudy with Mist and Fog 67 19.4 67 19.2 99 99 NW 5 7 30.03 1017 5 8.04672 0 0
8:35 am 08:35 Partly Cloudy 68 19.8 67 19.3 97 97 Calm 30.03 1017 7 11.265408 0 0
8:55 am 08:55 Sunny 69 20.6 67 19.5 93 93 NW 5 7 30 1016 7 11.265408 0 0
9:15 am 09:15 Partly Cloudy 70 21.3 68 19.9 92 92 NW 7 11 30 1016 10 16.09344 0 0
9:35 am 09:35 Mostly Cloudy 71 21.7 67 19.7 88 88 NW 6 9 30 1016 10 16.09344 0 0
9:55 am 09:55 Cloudy 72 22 68 20.2 90 90 WNW 5 7 30 1016 10 16.09344 0 0
10:15 am 10:15 Mostly Cloudy 73 22.5 68 20.1 86 86 NNW 3 6 30 1016 10 16.09344 0 0
10:35 am 10:35 Mostly Cloudy 72 22.1 68 19.9 87 87 Calm 30 1016 10 16.09344 0 0
10:55 am 10:55 Mostly Cloudy 73 22.8 69 20.5 87 87 WNW 7 11 30 1016 10 16.09344 0 0
11:15 am 11:15 Partly Cloudy 74 23.2 69 20.4 84 84 NW 5 7 30 1016 10 16.09344 0 0
11:35 am 11:35 Sunny 75 24 69 20.4 80 80 WNW 5 7 29.97 1015 10 16.09344 0 0
11:55 am 11:55 Partly Cloudy 76 24.4 69 20.5 79 79 N 5 7 29.97 1015 10 16.09344 0 0
12:15 pm 12:15 Sunny 77 24.8 69 20.5 77 77 NW 3 6 29.97 1015 10 16.09344 0 0
12:35 pm 12:35 Sunny 78 25.5 69 20.3 73 73 NNW 5 7 29.94 1014 10 16.09344 0 0
12:55 pm 12:55 Sunny 78 25.7 66 18.7 65 65 NNW 5 7 29.97 1015 10 16.09344 0 0
1:15 pm 13:15 Sunny 79 26 64 18 61 61 Calm 29.94 1014 10 16.09344 0 0
1:35 pm 13:35 Sunny 79 26 64 17.9 61 61 NE 3 6 29.94 1014 10 16.09344 0 0
1:55 pm 13:55 Sunny 79 26.1 64 17.6 60 60 Calm 29.94 1014 10 16.09344 0 0
2:15 pm 14:15 Sunny 80 26.5 65 18.5 62 62 E 5 7 29.94 1014 10 16.09344 0 0
2:35 pm 14:35 Sunny 80 26.6 65 18.2 60 60 ESE 3 6 29.91 1013 10 16.09344 0 0
2:55 pm 14:55 Sunny 81 27.1 63 17.1 54 54 ENE 7 11 29.88 1012 10 16.09344 0 0
3:15 pm 15:15 Sunny 81 27.1 65 18.3 59 59 E 5 7 29.88 1012 10 16.09344 0 0
3:35 pm 15:35 Sunny 81 27.2 62 16.4 52 52 SE 3 6 29.88 1012 10 16.09344 0 0
3:55 pm 15:55 Sunny 81 27.3 64 17.7 56 56 Calm 29.88 1012 10 16.09344 0 0
4:15 pm 16:15 Sunny 82 27.5 65 18.1 57 57 S 5 7 29.88 1012 10 16.09344 0 0
4:35 pm 16:35 Sunny 82 27.6 62 16.6 51 51 SSE 5 7 29.88 1012 10 16.09344 0 0
4:55 pm 16:55 Sunny 82 27.8 64 17.7 54 54 SSE 3 6 29.88 1012 10 16.09344 0 0
5:15 pm 17:15 Sunny 82 27.9 64 17.8 54 54 SE 5 7 29.88 1012 10 16.09344 0 0
5:35 pm 17:35 Sunny 82 28 64 17.5 53 53 SSE 3 6 29.88 1012 10 16.09344 0 0
5:55 pm 17:55 Sunny 82 27.6 61 16.2 50 50 SE 3 6 29.85 1011 10 16.09344 0 0
6:15 pm 18:15 Sunny 82 27.9 64 17.5 53 53 SSE 3 6 29.85 1011 10 16.09344 0 0
6:35 pm 18:35 Sunny 82 27.6 64 17.6 54 54 SSE 5 7 29.85 1011 10 16.09344 0 0
6:55 pm 18:55 Sunny 81 27.3 65 18.5 59 59 SE 3 6 29.85 1011 10 16.09344 0 0
7:15 pm 19:15 Sunny 81 27.1 66 18.9 61 61 SSE 5 7 29.85 1011 10 16.09344 0 0
7:35 pm 19:35 Sunny 80 26.6 67 19.7 66 66 SSE 3 6 29.88 1012 10 16.09344 0 0
7:55 pm 19:55 Sunny 79 26.2 68 19.9 68 68 SE 3 6 29.88 1012 10 16.09344 0 0
8:15 pm 20:15 Sunny 77 25.2 69 20.4 75 75 SE 6 9 29.88 1012 10 16.09344 0 0
8:35 pm 20:35 Sunny 75 23.9 68 20.1 79 79 ESE 6 9 29.88 1012 10 16.09344 0 0
8:55 pm 20:55 Clear 73 22.8 69 20.5 87 87 SE 5 7 29.91 1013 10 16.09344 0 0
9:15 pm 21:15 Clear 71 21.8 68 20.2 91 91 SE 5 7 29.94 1014 10 16.09344 0 0
9:35 pm 21:35 Clear 70 21.1 68 19.8 92 92 ESE 6 9 29.94 1014 10 16.09344 0 0
9:55 pm 21:55 Clear 71 21.8 68 19.9 89 89 SSE 3 6 29.94 1014 10 16.09344 0 0
10:15 pm 22:15 Clear 70 21.2 67 19.7 91 91 SSE 6 9 29.94 1014 10 16.09344 0 0
10:35 pm 22:35 Clear 71 21.6 67 19.7 89 89 S 7 11 29.94 1014 10 16.09344 0 0
10:55 pm 22:55 Clear 71 21.7 67 19.6 88 88 SSW 6 9 29.94 1014 10 16.09344 0 0
11:15 pm 23:15 Clear 69 20.5 67 19.3 93 93 S 5 7 29.94 1014 10 16.09344 0 0
11:35 pm 23:35 Clear 69 20.6 67 19.3 92 92 Calm 29.94 1014 10 16.09344 0 0
11:55 pm 23:55 Clear 67 19.3 66 19 98 98 ESE 3 6 30 1016 10 16.09344 0 0

Powered by AerisWeather